Location: Jackson Park
(37.2862°N, 79.9123°W)
Time: 23:11:41
(UTC+00:00)

Explorer 11/Cluster Stage 4 - Pass Details

Date: 12 May 2026
Orbit: 463 x 1173 km, 28.8° (Epoch: 5 June)

Event Time Altitude Azimuth Distance (km) Brightness Sun altitude
Rises 09:29:26 0° 255° (WSW) 2,802 - -8.6°
Exits shadow 09:33:09 - 223° (SW) 1,821 7.9 -8.0°
Reaches altitude 10° 09:33:42 10° 216° (SW) 1,745 7.8 -7.9°
Maximum altitude 09:34:31 11° 204° (SSW) 1,687 7.8 -7.8°
Drops below altitude 10° 09:35:20 10° 191° (SSW) 1,697 7.9 -7.6°
Sets 09:39:10 0° 150° (SSE) 2,492 9.2 -6.9°
